Location: Fort Collins
(40.5850°N, 105.0840°W)
Time: 10:39:50
(UTC-07:00)

Daily predictions for brighter satellites

Satellite Brightness Start Highest point End
(mag) Time Altitude Azimuth Time Altitude Azimuth Time Altitude Azimuth
NOSS 3-1 (A) 4.3 16:52:56 10° NW 17:00:37 84° WSW 17:09:00 10° SSE
BREEZE-M DEB (TANK) 3.7 16:53:16 10° WNW 17:01:36 90° NW 17:05:22 10° ESE
Cosmos 1125 Rocket 3.6 16:56:55 10° SSW 17:02:13 86° WNW 17:07:34 10° NNE
Thor Agena Rocket 3.8 17:00:54 10° NNE 17:05:58 51° E 17:11:04 10° S
Cosmos 2341 Rocket 4.0 17:02:18 10° N 17:08:33 79° E 17:14:44 10° S
Cosmos 1269 Rocket 4.1 17:03:20 10° NNW 17:08:41 88° WSW 17:13:58 10° SSE
IRS-1A Rocket 4.4 17:04:25 10° SSE 17:09:55 80° WSW 17:15:27 10° NNW
Hubble Space Telescope 3.6 17:08:56 10° SSW 17:10:26 12° SSW 17:11:56 10° S
Cosmos 1536 2.8 17:07:35 10° N 17:11:39 81° E 17:15:43 10° S
ATLAS 2AS CENTAUR R/B 3.3 17:04:53 10° NNW 17:12:39 46° NE 17:19:57 10° ESE
ISS -3.3 17:15:33 10° SW 17:18:49 85° SSE 17:21:48 12° NE
Cosmos 2251 Rocket 4.1 17:14:38 10° N 17:19:34 36° ENE 17:24:25 10° SE
Cosmos 2263 Rocket 3.9 17:15:29 10° WSW 17:20:20 30° WNW 17:25:16 10° N
Cosmos 1633 3.9 17:19:25 10° NNW 17:22:50 43° W 17:26:13 10° SSW
SL-27 R/B 2.9 17:25:08 10° N 17:28:38 40° ENE 17:32:04 10° SE
Cosmos 1812 3.3 17:27:48 10° SSE 17:31:21 36° E 17:34:55 10° NNE
Cosmos 1346 Rocket 4.3 17:29:28 10° SE 17:32:00 17° E 17:32:44 16° ENE
SJ-12 4.1 17:30:27 10° S 17:34:30 78° WSW 17:38:38 10° NNW
MSX 3.8 17:30:07 10° SSE 17:35:46 63° ENE 17:41:27 10° N
CZ-4 R/B 2.1 17:32:35 10° S 17:36:43 60° W 17:40:51 10° NNW
COSMO-SKYMED 1 3.1 17:35:21 10° NNE 17:39:24 37° E 17:43:24 10° SSE
Cosmos 1544 Rocket 3.5 17:35:57 10° N 17:40:24 67° E 17:44:49 10° SSE
Cosmos 1975 Rocket 3.8 17:38:51 10° SSW 17:43:03 52° W 17:47:17 10° N
Cosmos 158 Rocket 4.4 17:38:08 10° NNW 17:43:30 70° WSW 17:48:41 10° S
Cosmos 864 Rocket 4.5 17:38:31 10° N 17:44:45 63° E 17:50:59 10° SSE
MONITOR-E 4.2 17:41:44 10° SSE 17:44:51 56° ENE 17:48:00 10° N
Cosmos 1844 Rocket 2.8 17:40:47 10° SSW 17:46:21 80° WNW 17:52:00 10° NNE
CZ-2C R/B 2.8 17:41:47 10° S 17:46:40 68° W 17:51:45 10° NNW
GEOS 3 Rocket 3.8 17:42:48 10° ESE 17:47:42 49° NE 17:52:37 10° NNW
Cosmos 1238 Rocket 1.9 17:47:28 10° S 17:50:25 78° E 17:53:00 13° N
Cosmos 1975 3.1 17:48:58 10° N 17:52:53 43° ENE 17:56:44 10° SSE
Meteor 1-12 Rocket 4.2 17:49:23 10° N 17:55:09 66° E 18:00:58 10° SSE
Cosmos 1844 3.6 17:51:16 10° SSW 17:56:50 88° WNW 18:02:20 10° NNE
Cosmos 1536 Rocket 3.5 17:55:06 10° S 17:59:31 70° E 18:03:58 10° NNE
COSMOS 2441 4.3 17:57:16 10° SSE 18:02:07 89° WSW 18:07:02 10° NNW
OPS 8737 4.2 18:00:51 10° SW 18:04:13 87° NW 18:05:17 39° NNE
BREEZE-M R/B 4.2 17:53:46 10° SW 18:04:59 79° SSE 18:08:02 28° ENE
SL-24 DEB 4.2 18:01:21 10° N 18:06:08 85° E 18:10:49 10° S
SMAP 4.5 18:01:56 10° SSW 18:06:17 41° W 18:10:41 10° NNW
YAOGAN 1 4.0 18:02:23 10° S 18:06:28 41° W 18:10:34 10° NNW
SKYMED 3 4.4 18:05:10 10° NNE 18:09:30 82° ESE 18:13:50 10° S
Cosmos 2278 Rocket 2.1 18:08:53 10° SSW 18:14:30 79° ESE 18:18:28 20° NNE
OTV 4 2.6 18:18:07 10° WSW 18:20:26 20° SSW 18:21:18 18° S
Meteor 2-21 Rocket 4.4 18:14:53 10° N 18:21:00 57° E 18:27:01 10° SSE
Cosmos 1484 Rocket 3.2 18:18:00 10° S 18:21:44 59° W 18:25:25 10° NNW
FALCON 9 R/B 3.8 17:57:49 10° WSW 18:22:13 57° S 18:26:28 27° ESE
IDEFIX/ARIANE 42P 4.4 18:18:32 10° SSW 18:23:09 32° W 18:27:47 10° NNW
Okean 1-7 Rocket 3.9 18:20:25 10° SSE 18:24:14 44° ESE 18:24:14 44° ESE
Meteor 1-13 Rocket 4.2 18:19:46 10° S 18:25:15 58° E 18:28:38 24° NNE
Meteor 2-16 Rocket 4.5 18:20:45 10° N 18:26:40 51° ENE 18:32:32 10° SSE
Cosmos 921 Rocket 4.4 18:23:21 10° SSE 18:25:22 24° SSE 18:25:22 24° SSE
SKYMED 2 4.0 18:23:26 11° N 18:27:31 62° WNW 18:31:47 10° SSW
Cosmos 1455 Rocket 4.3 18:25:52 10° NNW 18:30:02 43° W 18:34:11 10° SSW
BREEZE M DEB (TANK) 2.4 18:24:03 10° SW 18:32:12 76° SSE 18:32:37 66° E
Cosmos 1535 Rocket 4.5 18:32:41 10° N 18:38:55 56° E 18:45:01 10° SSE
Cosmos 2082 Rocket 2.4 18:34:47 10° NNW 18:39:41 47° NE 18:39:41 47° NE
Timation 2 Rocket 4.1 18:35:02 10° NNW 18:41:48 62° ENE 18:44:53 34° SE
Cosmos 1833 Rocket 3.4 18:40:41 10° NNW 18:44:32 37° NNE 18:44:32 37° NNE
SL-8 R/B 3.6 18:42:05 10° WSW 18:46:51 79° NNW 18:47:02 77° N
Cosmos 1500 4.1 18:43:30 10° NNW 18:47:11 47° W 18:50:52 10° SSW
BREEZE M DEB (TANK) 3.8 18:45:38 10° NW 18:49:35 51° NNE 18:50:35 47° ENE
Meteor 1-28 Rocket 3.9 18:50:05 53° WNW 18:50:10 53° WNW 18:53:52 10° SSW
NOSS 3-3 (A) 4.3 18:48:17 10° SW 18:54:25 65° NW 18:57:10 36° NNE
NOSS 3-3 (C) 4.3 18:48:23 10° SW 18:54:32 65° NW 18:57:14 36° NNE
ISS -0.6 18:53:13 10° WNW 18:54:29 16° NW 18:54:29 16° NW
NOAA 12 4.3 18:51:13 10° S 18:56:28 68° WSW 19:01:44 10° NNW
Cosmos 2239 Rocket 4.3 18:50:52 10° N 18:57:06 80° E 19:03:15 10° S
METEOR-M 4.1 18:52:10 10° S 18:57:29 80° WSW 19:02:51 10° NNW
Meteor 2-4 Rocket 4.5 18:56:59 10° S 19:00:09 36° S 19:00:09 36° S
ATLAS 2AS CENTAUR R/B 3.9 18:56:11 10° NW 19:03:42 46° WSW 19:10:41 10° S
Cosmos 1821 Rocket 3.8 18:59:23 10° N 19:05:31 88° E 19:11:36 10° S
Cosmos 1346 Rocket 4.5 19:04:39 10° SW 19:08:08 30° WNW 19:08:21 30° WNW
CZ-3B DEB 3.7 19:16:37 10° W 19:21:37 43° NNW 19:24:12 36° NNE
